Home > Weather > Unnao > Past weeks

Flag for India Past Weather in Unnao, Uttar Pradesh, India — Yesterday and Last 2 Weeks

Now
86 °F

Partly cloudy.


Feels Like: 95 °F
Forecast: 87 / 105 °F
Wind: No wind

Location: Lucknow / Amausi

Current Time: May 27, 2016 at 9:52:48 PM

Latest Report: May 27, 2016 at 9:00 PM


Visibility: 2 mi

Pressure: 29.50 "Hg

Humidity: 70%

Dew Point: 75 °F

Location of UnnaoLocation

Past Weather in Unnao — Graph

°F

Unnao Temperature Yesterday

Maximum temperature yesterday: 102 °F (at 2:00 PM)
Minimum temperature yesterday: 75 °F (at 3:00 AM)
Average temperature yesterday: 92 °F

High & Low Weather Summary for the Past Weeks

 TemperatureHumidityPressure
High115 °F (May 16, 1:30 PM)100% (May 22, 9:00 AM)29.77 "Hg (May 22, 9:00 AM)
Low73 °F (May 24, 3:00 AM)12% (May 16, 5:00 PM)29.39 "Hg (May 17, 6:30 PM)
Average95 °F49%29.52 "Hg
* Reported May 12 7:30 PM — May 27 8:00 PM, Unnao, Weather by CustomWeather, © 2016

Note: Actual official high and low records may vary slightly from our data, if they occured in-between our weather recording intervals... More about our weather records

Advertising

Unnao Weather History for the Previous 24 Hours

Scroll right to see more
 ConditionsComfort  
Time TempWeatherWind HumidityBarometerVisibility
8:00 PM
Fri, May 27
86 °FPartly cloudy.2 mph70%29.50 "Hg2 mi
7:30 PM86 °FPartly cloudy.2 mph70%29.47 "Hg2 mi
7:00 PM86 °FPartly sunny.5 mph66%29.47 "Hg2 mi
6:30 PM88 °FThunderstorms. Broken clouds.5 mph62%29.47 "Hg2 mi
5:30 PM90 °FPartly sunny.6 mph67%29.45 "Hg2 mi
5:00 PM88 °FBroken clouds.6 mph59%29.45 "Hg2 mi
4:30 PM84 °FDrizzle. Broken clouds.5 mph79%29.45 "Hg2 mi
4:00 PM82 °FThunderstorms. Partly sunny.5 mph79%29.47 "Hg1 mi
3:00 PM108 °FHaze.9 mph36%29.47 "Hg2 mi
2:30 PM106 °FHaze.7 mph43%29.47 "Hg2 mi
2:00 PM106 °FHaze.5 mph43%29.47 "Hg2 mi
1:30 PM106 °FHaze.6 mph43%29.50 "Hg2 mi
1:00 PM104 °FHaze.5 mph45%29.50 "Hg2 mi
12:30 PM102 °FBroken clouds.2 mph51%29.53 "Hg2 mi
12:00 PM102 °FBroken clouds.2 mph48%29.53 "Hg2 mi
11:30 AM100 °FPartly sunny.2 mph50%29.56 "Hg2 mi
11:00 AM99 °FScattered clouds.2 mph50%29.56 "Hg2 mi
10:30 AM97 °FScattered clouds.2 mph53%29.56 "Hg2 mi
10:00 AM93 °FScattered clouds.2 mph56%29.56 "Hg2 mi
9:30 AM91 °FScattered clouds.2 mph63%29.56 "Hg2 mi
9:00 AM88 °FScattered clouds.5 mph70%29.56 "Hg1 mi
8:30 AM86 °FThunderstorms. Broken clouds.5 mph75%29.56 "Hg1 mi
8:00 AM82 °FThunderstorms. More clouds than sun.16 mph79%29.56 "Hg1 mi
7:30 AM88 °FBroken clouds.2 mph62%29.53 "Hg2 mi
7:00 AM88 °FBroken clouds.2 mph62%29.53 "Hg2 mi
6:30 AM88 °FBroken clouds.No wind62%29.53 "Hg2 mi
6:00 AM86 °FScattered clouds.No wind66%29.53 "Hg2 mi
5:30 AM86 °FHaze.No wind66%29.50 "Hg2 mi
5:00 AM86 °FHaze.No wind66%29.50 "Hg2 mi
4:00 AM88 °FHaze.No wind62%29.50 "Hg2 mi
3:00 AM88 °FHaze.No wind62%29.47 "Hg2 mi
2:00 AM90 °FHaze.2 mph55%29.47 "Hg2 mi
1:00 AM90 °FHaze.3 mph59%29.50 "Hg2 mi
12:00 AM91 °FHaze.No wind59%29.50 "Hg2 mi
11:00 PM
Thu, May 26
93 °FHaze.No wind56%29.50 "Hg2 mi
10:00 PM93 °FHaze.No wind59%29.50 "Hg2 mi
9:00 PM93 °FHaze.No wind59%29.47 "Hg2 mi
Weather by CustomWeather, © 2016

See weather overviewHow to use our weather pages